Culdrose, United Kingdom

3:38 AM BST on October 17, 2017 (GMT +0100)
Culdrose Navy

Weather History for EGDR - December, 2010

Change the Weather History Date:

Thursday, December 23, 2010

  Actual Average Record
Temperature  
Mean Temperature 32 °F -  
Max Temperature 35 °F 46 °F 55 °F (1997)
Min Temperature 30 °F 39 °F 26 °F (2001)
Degree Days  
Heating Degree Days 32    
Moisture  
Dew Point 31 °F    
Average Humidity 93    
Maximum Humidity 100    
Minimum Humidity 57    
Precipitation  
Precipitation 0.00 in - - ()
Sea Level Pressure  
Sea Level Pressure 29.93 in    
Wind  
Wind Speed 14 mph ()    
Max Wind Speed 22 mph    
Max Gust Speed 28 mph    
Visibility 7.6 miles    
Events      
Averages and records for this station are not official NWS values.
T = Trace of Precipitation, MM = Missing Value Source: Averaged Metar Reports

Daily Weather History Graph

Daily Weather History Graph

Search for Another Location

Airport or City:

Trip Planner

Search our weather history database for the weather conditions in past years. The results will help you decide how hot, cold, wet, or windy it might be!

Date:

Astronomy

Dec. 23, 2010 Rise Set
Actual Time 8:18 AM GMT 4:21 PM GMT
Civil Twilight 7:39 AM GMT 5:00 PM GMT
Nautical Twilight 6:57 AM GMT 5:42 PM GMT
Astronomical Twilight 6:18 AM GMT 6:21 PM GMT
Moon 7:10 PM GMT (12/23) 9:45 AM GMT (12/23)
Length of Visible Light 9h 21m
Length of Day
8h 03m
Waning Gibbous, 94% of the Moon is Illuminated
Dec 23
Waning Gibbous
Dec 28
Last Quarter
Jan 4
New
Jan 12
First Quarter
Jan 19
Full

Hourly Weather History & Observations

Time (GMT) Temp. Windchill Dew Point Humidity Pressure Visibility Wind Dir Wind Speed Gust Speed Precip Events Conditions
12:50 AM 30.2 °F 18.9 °F 30.2 °F 100% 29.80 in - NE 16.1 mph 27.6 mph N/A   Clear
1:50 AM 32.0 °F 21.2 °F 30.2 °F 93% 29.80 in - NE 16.1 mph - N/A   Clear
2:50 AM 32 °F - 31 °F 95% 29.85 in 9 mi NE 18.4 mph - -   Haze
2:50 AM 32.0 °F 20.5 °F 32.0 °F 100% 29.83 in - NE 18.4 mph - N/A   Clear
3:50 AM 32.0 °F 21.6 °F 32.0 °F 100% 29.83 in - NE 15.0 mph - N/A   Clear
4:50 AM 30.2 °F 20.8 °F 30.2 °F 100% 29.83 in - NE 11.5 mph - N/A   Clear
5:50 AM 31 °F - 30 °F 94% 29.86 in 9 mi NE 13.8 mph - -   Haze
5:50 AM 30.2 °F 19.8 °F 30.2 °F 100% 29.83 in - NE 13.8 mph - N/A   Clear
6:50 AM 32.0 °F 21.2 °F 32.0 °F 100% 29.86 in - NE 16.1 mph - N/A   Clear
7:50 AM 32.0 °F 21.6 °F 26.6 °F 80% 29.86 in 6.2 mi NE 15.0 mph - N/A   Mostly Cloudy
8:50 AM 30.2 °F 18.9 °F 30.2 °F 100% 29.89 in 6.2 mi NE 16.1 mph - N/A   Mostly Cloudy
9:50 AM 32.0 °F 21.2 °F 30.2 °F 93% 29.89 in 6.2 mi ENE 16.1 mph - N/A   Mostly Cloudy
10:50 AM 32.0 °F 21.6 °F 26.6 °F 80% 29.92 in 6.2 mi NE 15.0 mph - N/A   Mostly Cloudy
11:50 AM 33 °F - 32 °F 96% 29.94 in 11 mi NE 21.9 mph - -   Partly Cloudy
11:50 AM 33.8 °F 21.9 °F 32.0 °F 93% 29.92 in 6.2 mi NE 21.9 mph - N/A   Mostly Cloudy
12:50 PM 33.8 °F 23.5 °F 33.8 °F 100% 29.92 in 6.2 mi NE 16.1 mph - N/A   Mostly Cloudy
1:50 PM 35.6 °F 25.5 °F 33.8 °F 93% 29.92 in 6.2 mi NE 17.3 mph - N/A   Mostly Cloudy
2:50 PM 35 °F - 34 °F 94% 29.94 in 12 mi NE 16.1 mph - -   Mostly Cloudy
2:50 PM 33.8 °F 23.5 °F 33.8 °F 100% 29.92 in 6.2 mi NE 16.1 mph 27.6 mph N/A   Mostly Cloudy
3:50 PM 33.8 °F 23.5 °F 33.8 °F 100% 29.92 in 6.2 mi NNE 16.1 mph - N/A   Mostly Cloudy
4:50 PM 33.8 °F 23.9 °F 33.8 °F 100% 29.95 in 6.2 mi NE 15.0 mph - N/A   Mostly Cloudy
5:50 PM 35 °F - 33 °F 92% 30.00 in 12 mi NE 16.1 mph - -   Overcast
5:50 PM 33.8 °F 23.5 °F 33.8 °F 100% 29.98 in 6.2 mi NE 16.1 mph - N/A   Overcast
6:50 PM 35.6 °F 25.9 °F 33.8 °F 93% 29.98 in 6.2 mi NE 16.1 mph - N/A   Overcast
7:50 PM 33.8 °F 24.3 °F 33.8 °F 100% 30.01 in 6.2 mi NE 13.8 mph - N/A   Overcast
8:50 PM 35 °F - 25 °F 57% 30.03 in 12 mi NE 17.3 mph - -   Overcast
8:50 PM 35.6 °F 25.5 °F 24.8 °F 65% 30.01 in 6.2 mi NE 17.3 mph - N/A   Overcast
9:50 PM 33.8 °F 24.3 °F 28.4 °F 81% 30.04 in 6.2 mi NE 13.8 mph - N/A   Mostly Cloudy
10:50 PM 33.8 °F 23.5 °F 33.8 °F 100% 30.04 in 6.2 mi NE 16.1 mph - N/A   Mostly Cloudy
11:50 PM 35 °F - 34 °F 94% 30.07 in 12 mi NE 15.0 mph - -   Mostly Cloudy
11:50 PM 35.6 °F 26.2 °F 33.8 °F 93% 30.04 in 6.2 mi NE 15.0 mph - N/A   Mostly Cloudy